Regional Weather Roundup
Issued by NWS

Home | Current Version | Previous Version | Text Only | Print | Product List | Glossary On
Versions: 1 2 3 4 5 6 7 8 9 10 11 12 13 14 15 16 17 18 19 20 21 22 23 24 25 26 27 28 29 30 31 32 33 34 35 36 37 38 39 40 41 42 43 44 45 46 47 48 49 50
000
ASUS45 KBOU 170707
RWRCO

WEATHER ROUNDUP FOR COLORADO
NATIONAL WEATHER SERVICE DENVER/BOULDER CO
100 AM MDT WED SEP 17 2014

NOTE: "FAIR" INDICATES FEW OR NO CLOUDS BELOW 12000 FEET WITH NO
SIGNIFICANT WEATHER AND/OR OBSTRUCTIONS TO VISIBILITY.

COZ001>005-013-030-031-170800-
...NORTHWEST COLORADO...

CITY           SKY/WX    TMP DP  RH WIND       PRES   REMARKS
CRAIG          CLEAR     48  38  68 CALM      30.20S
HAYDEN         NOT AVBL
MEEKER         PTCLDY    50  39  66 E7        30.22S
MOUNT WERNER   NOT AVBL
STEAMBOAT SPGS CLEAR     50  37  61 SE8       30.24F
WALDEN         PTCLDY    41  32  70 E8        30.31F
$$

COZ006>008-011-170800-
...WEST CENTRAL VALLEYS...

CITY           SKY/WX    TMP DP  RH WIND       PRES   REMARKS
GRAND JUNCTION CLEAR     60  43  53 E5        30.08R
MONTROSE       PTCLDY    62  40  44 SE10      30.18S
EAGLE          CLEAR     52  39  62 SE5       30.27S
RIFLE          CLEAR     56  43  61 SW3       30.16S
DELTA          PTCLDY    62  41  45 NE7       30.13S
NUCLA          PTCLDY    63  37  39 E10       30.21S
$$

COZ017>023-064>068-170800-
...SOUTHWEST COLORADO...

CITY           SKY/WX    TMP DP  RH WIND       PRES   REMARKS
DURANGO        MOCLDY    56  45  66 NE7       30.26R
CORTEZ         CLEAR     55  49  80 CALM      30.19S
PAGOSA SPRINGS MOCLDY    51  42  71 CALM      30.33S
TELLURIDE      NOT AVBL
WOLF CREEK PAS PTCLDY    43  39  87 SW10      30.59S
$$

COZ009-010-012-014-032>034-037-058>063-170800-
...CENTRAL COLORADO...

CITY           SKY/WX    TMP DP  RH WIND       PRES   REMARKS
ASPEN          CLEAR     48  35  60 S6          N/A
BUENA VISTA    CLEAR     53  32  44 NW6       30.34R
COPPER MTN     CLEAR     54  30  40 S12       30.61S
BERTHOUD PASS  FAIR      41  37  87 NW12      30.64R
COTTONWOOD PAS CLEAR     59  28  31 S3        30.46S
GUNNISON       CLEAR     48  34  57 N3        30.35R
KREMMLING      CLEAR     41  32  70 CALM      30.32S
LEADVILLE      CLEAR     43  29  57 CALM      30.45F
SALIDA         CLEAR     56  37  47 NW5       30.37S
SUNLIGHT       CLEAR     55  34  44 NW5       30.53F
WILKERSON PASS NOT AVBL
$$

COZ069>075-170800-
...SAN LUIS VALLEY/SANGRE DE CRISTO MOUNTAINS...

CITY           SKY/WX    TMP DP  RH WIND       PRES   REMARKS
ALAMOSA        MOCLDY    52  44  74 E8        30.28S
LA VETA PASS   NOT AVBL
SAGUACHE       CLEAR     52  34  50 NW3       30.33S
$$

COZ035-036-038>040-170800-
...NORTHERN COLORADO FRONT RANGE...

CITY           SKY/WX    TMP DP  RH WIND       PRES   REMARKS
DENVER INTL AP PTCLDY    63  40  42 S16       30.10F
DMNS CITY PARK   N/A     62  43  50 S5G10     30.10F
AURORA         PTCLDY    61  38  43 S13       30.13F
FRONT RANGE AP CLEAR     63  43  48 S10       30.12S
ERIE MUNI ARPT CLEAR     54  44  70 S3        30.08F
BOULDER MUN AP CLEAR     55  43  62 CALM      30.09F
CENTENNIAL     CLEAR     63  37  38 S9        30.15S
BROOMFIELD     CLEAR     59  41  51 W7        30.12S
FORT COLLINS   CLEAR     61  43  51 CALM      30.09F
LONGMONT       CLEAR     58  44  58 CALM      30.10F
$$

COZ041-046-047-076>085-087-088-170800-
...PIKES PEAK/PALMER DIVIDE AND SOUTHERN FOOTHILLS...

CITY           SKY/WX    TMP DP  RH WIND       PRES   REMARKS
COLO. SPRINGS  CLEAR     58  37  45 N8        30.20S
A. F. ACADEMY  CLEAR     49  39  66 N9        30.22S
ELLICOTT       NOT AVBL
FALCON         CLEAR     53  38  58 CALM      30.24S
FORT CARSON    CLEAR     59  41  50 NW8       30.16F
LIMON          CLEAR     48  41  76 NW3       30.13F
MONUMENT HILL  CLEAR     50  36  57 S8        30.23S
TRINIDAD       PTCLDY    65  52  62 SW17      30.15F
$$

COZ042>045-048>051-090-091-170800-
...NORTHEAST COLORADO...

CITY           SKY/WX    TMP DP  RH WIND       PRES   REMARKS
GREELEY ARPT   CLEAR     52  39  62 N6        30.08F
AKRON          CLEAR     62  44  51 S10       30.06F
BURLINGTON     CLEAR     54  48  80 W7        30.04F
WRAY           CLEAR     56  49  79 W3        30.01S
STERLING       CLEAR     54  48  82 W5        30.04R
HOLYOKE        CLEAR     54  48  82 W8        30.01S
FORT MORGAN    CLEAR     55  42  60 W8        30.06F
$$

COZ086-089-092>099-170800-
...SOUTHEAST COLORADO...

CITY           SKY/WX    TMP DP  RH WIND       PRES   REMARKS
PUEBLO         CLEAR     62  42  47 CALM      30.07S
LA JUNTA       CLEAR     63  46  54 N3        30.05R
LAMAR          CLEAR     59  53  80 SW6       29.99F
SPRINGFIELD      N/A     58  56  93 SW9       30.06S
$$


USA.gov is the U.S. government's official web portal to all federal, state and local government web resources and services.